Regional Weather Roundup
Issued by NWS

Home | Current Version | Previous Version | Text Only | Print | Product List | Glossary On
Versions: 1 2 3 4 5 6 7 8 9 10 11 12 13 14 15 16 17 18 19 20 21 22 23 24 25 26 27 28 29 30 31 32 33 34 35 36 37 38 39 40 41 42 43 44 45 46 47 48 49 50
000
ASUS44 KLUB 291410
RWRTX
WEST TEXAS WEATHER ROUNDUP
NATIONAL WEATHER SERVICE LUBBOCK TX
900 AM CDT WED JUL 29 2015

NOTE: "FAIR" INDICATES FEW OR NO CLOUDS BELOW 12,000 FEET WITH NO
SIGNIFICANT WEATHER AND/OR OBSTRUCTIONS TO VISIBILITY.

TXZ004-006>008-010-012-014-016-OKZ002-291500-
TEXAS PANHANDLE/OKLAHOMA PANHANDLE

CITY           SKY/WX    TMP DP  RH WIND       PRES   REMARKS
AMARILLO       SUNNY     70  63  78 N13       30.22R
BORGER         SUNNY     71  63  75 N9        30.21R
CANADIAN       SUNNY     75  62  64 NE15G22   30.15R
DALHART        MOSUNNY   70  63  78 NE10      30.27R
DUMAS          MOSUNNY   67  61  81 N8        30.25R
GUYMON         CLOUDY    66  55  67 NE14      30.22R
HEREFORD       CLOUDY    72  67  87 MISG      30.24R
PAMPA          SUNNY     72  63  72 NE17      30.21R
PERRYTON       MOSUNNY   70  58  66 NE15G21   30.19R
$$

TXZ026-029-035-045-048-291500-
SOUTHERN PANHANDLE/SOUTH PLAINS/ROLLING PLAINS

CITY           SKY/WX    TMP DP  RH WIND       PRES   REMARKS
CHILDRESS      SUNNY     80  67  64 NE14      30.09R
SEMINOLE       SUNNY     74  62  64 N9        30.17R
LUBBOCK        MOSUNNY   75  64  68 N9        30.17R
PLAINVIEW      SUNNY     73  62  68 NE9       30.18R
SNYDER         SUNNY     79  65  62 SW7       30.11R
$$

TXZ052-054-060>062-072-078-127-140-154-169-291500-
PERMIAN BASIN/CONCHO VALLEY/BIG COUNTRY/EDWARDS PLATEAU

CITY           SKY/WX    TMP DP  RH WIND       PRES   REMARKS
ABILENE        MOSUNNY   81  70  69 SW5       30.08R
BIG SPRING     SUNNY     78  63  61 S6        30.14R
BRADY          SUNNY     81  70  69 S7        30.08R
BROWNWOOD      SUNNY     81  68  65 S7        30.08R
JUNCTION       SUNNY     77  69  76 SW5       30.08
MIDLAND        SUNNY     80  63  55 SE7       30.12R
ODESSA         SUNNY     81  61  50 MISG      30.13R
SAN ANGELO     SUNNY     80  68  66 S10       30.06R
SONORA         SUNNY     79  70  73 S9        30.13R
SWEETWATER     SUNNY     81  67  62 SW7       30.13R
WINK           SUNNY     80  62  54 NE9       30.09S
$$

TXZ055-058-074-075-080-082-291500-
FAR WEST/SOUTHWEST MOUNTAINS/TRANS PECOS

CITY           SKY/WX    TMP DP  RH WIND       PRES   REMARKS
ALPINE         PTSUNNY   69  66  89 E3        30.26R
DRYDEN           N/A     80  69  69 S8        30.06R
EL PASO        CLOUDY    73  65  75 NE9       30.17R
FORT STOCKTON  SUNNY     77  65  66 SW13      30.11R
GUADALUPE PASS CLOUDY    67  60  78 NE23      30.26R
MARFA          PTSUNNY   72  64  78 N13       30.22S
PECOS          SUNNY     80  62  54 N8        30.09R
PRESIDIO       FAIR      83  62  48 MISG      30.07R
$$

TXZ014-016-019-021>030-083-291500
TEXAS TECH WEST TEXAS MESONET/TEXAS PANHANDLE/NORTHERN SOUTH PLAINS

CITY           SKY/WX    TMP DP  RH WIND       PRES   REMARKS
ABERNATHY 5ENE   N/A     73  63  71 NE8       30.19R
AMARILLO 9NNE    N/A     70  65  86 N10       30.22R
AMARILLO 7SSE    N/A     70  64  79 N12       30.23R
AMHERST 1NE      N/A     72  63  74 N10       30.21R
BOOTLEG 11WNW    N/A     68  64  85 NE9       30.28R
CANADIAN 6E      N/A     74  60  61 N14       30.14R
CAPROCK CYN SP   N/A     76  65  69 N9        30.15R
CHILDRESS 2NNE   N/A     78  66  67 N10       30.09R
CLARENDON 2WSW   N/A     76  62  62 NE12      30.16R
CLAUDE 12SW      N/A     72  64  74 N14       30.20R
DIMMITT 2NE      N/A     71  64  78 N10       30.23R
FLOYDADA 2NNE    N/A     74  64  69 N14       30.17R
FRIONA 2NE       N/A     68  65  90 N7        30.26R
GOODLETT 3W      N/A     81  65  59 N13       30.05R
HART 3N          N/A     71  64  78 NE9       30.22R
HEREFORD 2NW     N/A     68  64  85 N6        30.24R
MCLEAN 1E        N/A     74  61  64 N14       30.15R
MEMPHIS 1NE      N/A     78  65  63 N15       30.10R
MULESHOE 2SSW    N/A     71  67  86 N5        30.23R
OLTON 6S         N/A     71  63  75 N9        30.20R
PALO DURO SP     N/A     72  62  71 N9        30.22R
PAMPA 2E         N/A     71  61  70 N17       30.19R
PLAINVIEW 1S     N/A     73  65  75 N9        30.19R
SILVERTON 7ESE   N/A     74  63  68 N13       30.18R
TULIA 2ENE       N/A     73  64  73 N10       30.21R
TURKEY 2WSW      N/A     77  66  69 N10       30.13R
UMBARGER 3NNE    N/A     71  65  81 NE14      30.25R
$$

TXZ033>036-039>041-045>048-291500
TEXAS TECH WEST TEXAS MESONET/SOUTH PLAINS

CITY           SKY/WX    TMP DP  RH WIND       PRES   REMARKS
AIKEN 3WSW       N/A     73  65  75 N12       30.20R
ANDREWS 2NE      N/A     81  59  47 E1        30.14S
ANTON 6SSW       N/A     72  63  73 N9        30.19R
BROWNFIELD 2S    N/A     74  62  64 N10       30.18R
DENVR CTY 7WNW   N/A     74  59  59 N13       30.19R
GAIL 2ESE        N/A     81  64  55 S5        30.11R
LAMESA 2SE       N/A     81  64  57 S7        30.13S
LEVELLAND 4S     N/A     73  61  66 N13       30.19R
LUBBOCK 3WNW     N/A     73  61  65 N7        30.17F
MORTON 1ENE      N/A     73  64  73 N8        30.21R
ODONNELL 1N      N/A     79  61  54 SE1       30.14R
PLAINS 3N        N/A     74  61  64 N13       30.20R
RALLS 1SE        N/A     75  63  65 N10       30.17R
REESE CENTER     N/A     73  62  68 N8        30.18S
SEAGRAVES 1SW    N/A     74  63  66 N14       30.17S
SEMINOLE 2NNE    N/A     75  61  62 N14       30.16R
SLATON 2NE       N/A     75  62  62 N6        30.16R
SNYDER 3E        N/A     81  65  58 S8        30.10R
SUNDOWN 8SW      N/A     74  62  64 N12       30.20R
TAHOKA 3NNE      N/A     76  64  67 N7        30.16R
WOLFFORTH 6SSW   N/A     73  62  68 N10       30.18R
$$

TXZ031-032-036>038-042>044-291500-
TEXAS TECH WEST TEXAS MESONET/ROLLING PLAINS

CITY           SKY/WX    TMP DP  RH WIND       PRES   REMARKS
ASPERMONT 3NE    N/A     81  66  59 N2        30.07R
FLUVANNA 3WNW    N/A     79  64  59 S7        30.12R
GRAHAM 5SSW      N/A     78  63  60 E3        30.13R
GUTHRIE 10WSW    N/A     80  64  59 N12       30.08R
HASKELL 1NW      N/A     85  64  49 S9        30.04R
JAYTON 1SSE      N/A     80  65  59 NE3       30.08R
KNOX CITY 3NW    N/A     83  64  51 NW1       30.05R
LK A HENRY 1NW   N/A     80  65  59 NE5       30.10R
NORTHFIELD 1S    N/A     77  67  70 N10       30.11R
ODELL 4ENE       N/A     82  69  64 NW6       30.05R
PADUCAH 10SW     N/A     78  66  65 N13       30.09R
POST 1NE         N/A     78  63  60 NE3       30.12R
RRING SPRGS 3N   N/A     76  66  71 N13       30.14R
SEYMOUR 3NW      N/A     82  65  56 S9        30.03R
SPUR 1W          N/A     79  64  59 N10       30.10R
WEINERT 2NNE     N/A     84  66  53 SW8       30.05R
WHITE RVR 6NE    N/A     78  63  59 N10       30.13R
$$

TXZ052-054-060>062-072-078-127-140-154-169-291500-
TEXAS TECH WEST TEXAS MESONET/PERMIAN BASIN/
CONCHO VALLEY/BIG COUNTRY/EDWARDS PLATEAU

CITY           SKY/WX    TMP DP  RH WIND       PRES   REMARKS
COYANOSA 2N      N/A     80  65  60 NE3       30.08R
JUNCTION 1SSW    N/A     79  69  73 S5        30.08R
MERTZON 3NNE     N/A     80  69  70 S7        30.09R
SAN ANGELO 7NW   N/A     81  67  61 S5        30.08R
STRLNG CT 4WSW   N/A     82  67  60 SE2       30.11R
ST LAWRNCE 5SW   N/A     78  66  65 S7        30.11R
SWEETWATR 11SW   N/A     81  68  64 SW7       30.12R
WALL 1E          N/A     81  67  62 S3        30.07S
$$

TXZ055-058-074-075-080-082-291500-
TEXAS TECH WEST TEXAS MESONET/FAR WEST/SOUTHWEST MOUNTAINS/TRANS PECOS

CITY           SKY/WX    TMP DP  RH WIND       PRES   REMARKS
PRSMN GAP BBNP   N/A     83  60  46 NE15      30.09R
$$


USA.gov is the U.S. government's official web portal to all federal, state and local government web resources and services.